Flag for Marshall Islands Weather past 2 weeks in Majuro, Marshall Islands

Now
84 °F

Partly cloudy.


Feels Like: 94 °F
Forecast: 83 / 87 °F
Wind: 12 mph from East

Location: Majuro Atoll

Current Time: Oct 22, 2014 at 1:00:22 AM

Latest Report: Oct 21, 2014 at 11:51 PM


Visibility: 15 mi

Pressure: 29.87 "Hg

Humidity: 83%

Dew point: 78 °F

Location of MajuroLocation

Historic Weather in Majuro — Graph

°F

Majuro temperature yesterday

Maximum temperature yesterday: 89 °F (at 11:53 AM)
Minimum temperature yesterday: 82 °F (at 4:58 AM)
Average temperature yesterday: 86 °F

Past Weeks' High & Low Weather Summary

 TemperatureHumidityPressure
High89 °F (Oct 19, 11:52 AM)93% (Oct 8, 4:52 PM)29.90 "Hg (Oct 8, 4:52 PM)
Low77 °F (Oct 9, 12:53 PM)67% (Oct 10, 1:51 PM)29.72 "Hg (Oct 18, 2:56 PM)
Average84 °F80%29.82 "Hg
* Reported Oct 6 11:54 PM — Oct 21 11:51 PM, Majuro, Weather by CustomWeather, © 2014

Note: Actual official high and low records may vary slightly from our data, if they occured in-between our weather recording intervals... More about our weather records

Advertising

Majuro weather history for previous 24 hours

 ConditionsComfort  
Time TempWeatherWind HumidityBarometerVisibility
11:51 PM
Oct 21
84 °FPartly cloudy.12 mph83%29.87 "Hg15 mi
10:51 PM84 °FPartly cloudy.6 mph80%29.87 "Hg15 mi
9:53 PM84 °FPartly cloudy.6 mph80%29.86 "Hg15 mi
8:51 PM85 °FPartly cloudy.6 mph79%29.85 "Hg15 mi
7:51 PM85 °FPassing clouds.6 mph80%29.83 "Hg15 mi
6:52 PM85 °FScattered clouds.No wind79%29.81 "Hg15 mi
5:50 PM86 °FScattered clouds.6 mph76%29.79 "Hg15 mi
4:50 PM87 °FScattered clouds.6 mph73%29.78 "Hg15 mi
3:55 PM88 °FBroken clouds.6 mph75%29.77 "Hg15 mi
2:50 PM88 °FBroken clouds.6 mph73%29.77 "Hg15 mi
1:52 PM87 °FBroken clouds.3 mph77%29.78 "Hg15 mi
12:52 PM89 °FScattered clouds.7 mph74%29.80 "Hg20 mi
11:53 AM89 °FScattered clouds.7 mph73%29.83 "Hg20 mi
10:52 AM88 °FScattered clouds.7 mph74%29.85 "Hg20 mi
9:51 AM88 °FPartly sunny.9 mph76%29.86 "Hg15 mi
8:52 AM87 °FBroken clouds.9 mph76%29.86 "Hg15 mi
7:54 AM85 °FBroken clouds.8 mph78%29.84 "Hg15 mi
6:51 AM82 °FPartly cloudy.8 mph86%29.83 "Hg15 mi
5:52 AM83 °FSprinkles. Overcast.8 mph86%29.81 "Hg12 mi
4:58 AM82 °FPartly cloudy.90 mph87%29.80 "Hg15 mi
3:55 AM84 °FPartly cloudy.9 mph84%29.78 "Hg15 mi
2:54 AM83 °FPartly cloudy.8 mph79%29.78 "Hg15 mi
1:53 AM85 °FPartly cloudy.8 mph80%29.78 "Hg15 mi
Weather by CustomWeather, © 2014

See weather overviewHow to use our weather pages